Location: Beddau
(51.5575°N, 3.3561°W)
Time: 16:44:50
(UTC+00:00)

ARIANE 5 R/B - Pass Details

Date: 03 March 2021
Orbit: 621 x 655 km, 98.2° (Epoch: 11 April)

Event Time Altitude Azimuth Distance (km) Brightness Sun altitude
Exits shadow 20:21:41 24° 32° (NNE) 1,370 4.2 -22.9°
Drops below altitude 10° 20:24:08 10° 4° (N) 2,076 5.4 -23.3°
Sets 20:26:35 0° 353° (N) 2,995 6.4 -23.6°
